Regional Weather Roundup
Issued by NWS

Home | Current Version | Previous Version | Text Only | Print | Product List | Glossary On
Versions: 1 2 3 4 5 6 7 8 9 10 11 12 13 14 15 16 17 18 19 20 21 22 23 24 25 26 27 28 29 30 31 32 33 34 35 36 37 38 39 40 41 42 43 44 45 46 47 48 49 50
000
ASUS43 KMKX 312311
RWRWI

WISCONSIN REGIONAL WEATHER ROUNDUP
NATIONAL WEATHER SERVICE MILWAUKEE/SULLIVAN WI
500 PM CST SAT JAN 31 2015

NOTE: "FAIR" INDICATES FEW OR NO CLOUDS BELOW 12,000 FEET WITH NO
SIGNIFICANT WEATHER AND/OR OBSTRUCTIONS TO VISIBILITY.

WIZ001-002-006>008-014>016-023>028-010000-
NORTHWEST WISCONSIN

CITY           SKY/WX    TMP DP  RH WIND       PRES   REMARKS
SUPERIOR ARPT  CLEAR     19   7  59 E5        30.29S WCI  13
ASHLAND        CLEAR     16   6  65 NE15      30.30R WCI   1
HAYWARD        CLEAR     21   7  54 NE9       30.23R WCI  11
SIREN          PTCLDY    24   7  47 NE9       30.23R WCI  14
CUMBERLAND     CLOUDY    23  12  63 NE5       30.20R WCI  17
RICE LAKE      CLOUDY    23  15  70 N8        30.22R WCI  14
CHETEK         CLOUDY    25  15  66 NE5       30.21R WCI  19
LADYSMITH      CLOUDY    23  14  69 NE13      30.21S WCI  11
EAU CLAIRE     CLOUDY    27  16  63 NE8       30.19S WCI  19
MENOMONIE      CLOUDY    28  19  67 N8        30.19S WCI  20
NEW RICHMOND   CLOUDY    26  16  67 E9        30.19S WCI  16
OSCEOLA        CLOUDY    28  15  60 NE12      30.22S WCI  18
$$

WIZ003>005-009-010-017-018-010000-
NORTH CENTRAL WISCONSIN

CITY           SKY/WX    TMP DP  RH WIND       PRES   REMARKS
MANITOWISH WTR CLOUDY    16   8  72 N8        30.20R WCI   5
ARBOR VITAE    CLOUDY    19  12  74 NE3       30.20R
WOODRUFF       CLOUDY    19  12  74 NE3       30.20R
RHINELANDER    CLOUDY    20  10  65 NE5       30.18R WCI  13
EAGLE RIVER    FLURRIES  16   7  67 N8        30.18R WCI   6
LAND O LAKES   CLOUDY    15   8  72 N7        30.21R WCI   5
PHILLIPS       PTCLDY    17   9  70 N10       30.20R WCI   5
TOMAHAWK       CLOUDY    20  11  68 CALM      30.19R
MEDFORD        CLOUDY    23  15  73 N6        30.17R WCI  15
MERRILL        CLOUDY    24  15  69 NE8       30.18S WCI  14
$$

WIZ029-030-035-036-043>047-010000-
CENTRAL WISCONSIN

CITY           SKY/WX    TMP DP  RH WIND       PRES   REMARKS
WAUSAU         CLOUDY    25  16  68 N6        30.17R WCI  18
MOSINEE        CLOUDY    27  21  80 N6        30.19R WCI  20
MARSHFIELD     CLOUDY    27  18  69 NE9       30.16S WCI  18
STEVENS POINT  CLOUDY    25  17  73 N7        30.18S WCI  17
WAUPACA        CLOUDY    30  22  71 CALM      30.20R
WAUTOMA        CLOUDY    29  21  71 NE6       30.19R WCI  23
WISC RAPIDS    CLOUDY    28  18  66 NE8       30.19R WCI  20
CAMP DOUGLAS   CLOUDY    29  25  86 NE5       30.17R WCI  24
$$

WIZ011>013-019>022-031-037>040-048>050-010000-
NORTHEAST WISCONSIN

CITY           SKY/WX    TMP DP  RH WIND       PRES   REMARKS
ANTIGO         CLOUDY    22  15  75 N7        30.17R WCI  14
SHAWANO        CLOUDY    30  21  68 NE6       30.21R WCI  24
OCONTO         CLOUDY    28  19  70 MISG      30.22R
STURGEON BAY   CLOUDY    27  18  69 CALM      30.23R
GREEN BAY      CLOUDY    28  19  69 E5        30.21R WCI  23
MANITOWOC      CLOUDY    28  20  71 VRB5        N/A  WCI  23
APPLETON       CLOUDY    27  18  69 CALM      30.20R
CLINTONVILLE   CLOUDY    30  19  64 NE5       30.20R WCI  25
OSHKOSH        CLOUDY    27  19  72 NE5       30.19R WCI  22
$$

WIZ032>034-041-042-053>061-010000-
SOUTHWEST WISCONSIN

CITY           SKY/WX    TMP DP  RH WIND       PRES   REMARKS
LA CROSSE      CLOUDY    32  22  66 NE9       30.17R WCI  24
SPARTA         CLOUDY    29  21  73 N7        30.19R WCI  22
VIROQUA        CLOUDY    29  25  85 NE8       30.13S WCI  21
BOSCOBEL       CLOUDY    34  23  64 CALM      30.15F
PRAIRIE DU CHI CLOUDY    32  23  69 CALM      30.14S
PLATTEVILLE    CLOUDY    32  27  79 NE6       30.13S WCI  27
$$

WIZ056-057-062-063-064-067-068-010000-
SOUTH CENTRAL WISCONSIN

CITY           SKY/WX    TMP DP  RH WIND       PRES   REMARKS
REEDSBURG      CLOUDY    30  23  77 NE6       30.15F WCI  24
BARABOO/DELLS  CLOUDY    30  22  73 NE5       30.16R WCI  25
LONE ROCK      CLOUDY    32  25  75 NE3       30.16S
MINERAL POINT  CLOUDY    34  27  75 CALM      30.12F
MADISON        CLOUDY    33  23  66 NE6       30.15S WCI  28
MIDDLETON      CLOUDY    33  26  75 NE3       30.16S
WATERTOWN      CLOUDY    31  23  72 CALM      30.16S
MONROE         CLOUDY    32  27  80 CALM      30.13S
JANESVILLE     CLOUDY    36  23  60 CALM      30.15S
$$

WIZ051-052-058>065-066-070>072-010000-
SOUTHEAST WISCONSIN

CITY           SKY/WX    TMP DP  RH WIND       PRES   REMARKS
MILWAUKEE      CLOUDY    32  21  64 SE3       30.18R
WAUKESHA       CLOUDY    30  21  69 CALM      30.17R
MILWAUKEE/TIMM CLOUDY    32  21  64 CALM      30.18R
RACINE         CLOUDY    32  23  69 E6        30.19R WCI  26
BURLINGTON     CLOUDY    31  24  74 CALM      30.17R
KENOSHA        CLOUDY    32  23  69 E7        30.17R WCI  26
FOND DU LAC    CLOUDY    27  19  72 NE8       30.19R WCI  19
SHEBOYGAN      CLOUDY    28  19  69 N8        30.19R WCI  20
WEST BEND      CLOUDY    30  21  69 N6        30.17S WCI  24
JUNEAU         CLOUDY    29  21  73 N8        30.18R WCI  21
$$

LSZ147-162-010000-
LAKE SUPERIOR

STATION/POSITION TIME  TEMP    WIND        PRES    WAVE
                       AIR SEA DIR/SP/G            HT/PER
                 (UTC) (F)     (DEG/KT/KT) (MB)    (FT/S)
DEVILS ISLAND    2300   17      30/ 11/ 15 1028.4R
PORT WING        2240   20      50/ 11/ 15 1026.4R
SAXON HARBOR     2200   20      10/ 12/ 15 1025.7S
$$

LMZ867-665-643>646-010000-
LAKE MICHIGAN

STATION/POSITION TIME  TEMP    WIND        PRES    WAVE
                       AIR SEA DIR/SP/G            HT/PER
                 (UTC) (F)     (DEG/KT/KT) (MB)    (FT/S)
NORTHPORT PIER   2223   24      20/ 14/ 21 1023.4R
SISTER BAY       2213   24     360/ 13/ 16   N/A
KEWAUNEE LAKESHO 2200   28      10/  3/  6 1021.7R
SHEBOYGAN LAKESH 2300   29      10/ 10/ 12 1023.8R
PORT WASHINGTON  2240   31      40/  8/ 11 1023.0R
MILWAUKEE LAKESH 2200   32      80/  3/  4   N/A
KENOSHA   LAKESH 2300   33      60/  7/  7 1022.0R
$$

TC  - TEMPERATURE IN CELSIUS
VSB - VISIBILITY IN STATUTE MILES
WCI - WIND CHILL INDEX
HX  - HEAT INDEX



USA.gov is the U.S. government's official web portal to all federal, state and local government web resources and services.